Regional Weather Roundup
Issued by NWS

Home | Current Version | Previous Version | Text Only | Print | Product List | Glossary Off
Versions: 1 2 3 4 5 6 7 8 9 10 11 12 13 14 15 16 17 18 19 20 21 22 23 24 25 26 27

000
ASUS45 KSLC 230510
RWRUT

UTAH REGIONAL WEATHER ROUNDUP
NATIONAL WEATHER SERVICE SALT LAKE CITY UT
1000 PM MST MON JAN 22 2018

UTZ001>011-023>025-230600-

NORTHERN UTAH

CITY           SKY/WX    TMP DP  RH WIND       PRES   REMARKS
BRIGHAM CITY   CLOUDY    31  24  76 CALM      30.34S
HILL AFB       CLOUDY    29  19  66 CALM      30.31S
LOGAN          CLOUDY    28  24  85 S6        30.32F WCI  22
OGDEN          CLOUDY    31  22  69 CALM      30.32R
SALT LAKE CITY CLOUDY    32  26  78 S5        30.34R WCI  27
TOOELE VALLEY  CLOUDY    28  23  80 S5        30.34R WCI  23
WENDOVER       PTCLDY    26  20  77 NW6       30.33  WCI  19
HEBER CITY     LGT SNOW  25  19  80 CALM      30.29R
WEST JORDAN    CLOUDY    29  26  88 NW6       30.33R WCI  23

$$

UTZ011>015-024>027-230600-

CENTRAL/NORTHEAST UTAH

CITY           SKY/WX    TMP DP  RH WIND       PRES   REMARKS
PROVO AIRPORT  CLOUDY    25  21  85 CALM      30.34R
MOAB/CANYONLAN PTCLDY    23  20  88 CALM      30.30R
DELTA          MOCLDY    21  18  86 S3        30.33R
PRICE          CLOUDY    22  14  71 N6        30.27R WCI  14
ROOSEVELT      PTCLDY    14  10  85 W5        30.33R WCI   6
VERNAL         CLOUDY    16  10  77 CALM      30.30R

$$

UTZ013>016-019>022-027-230600-

SOUTHERN UTAH

CITY           SKY/WX    TMP DP  RH WIND       PRES   REMARKS
BRYCE CANYON   CLEAR     12   7  80 W7        30.26R WCI   1
CEDAR CITY     PTCLDY    14  12  92 CALM      30.27R
MILFORD        MOCLDY    12  10  92 NE3       30.31R
ST GEORGE      MOCLDY    35  26  69 CALM      30.30R
HANKSVILLE     PTCLDY    28   9  43 CALM      30.33S
BLANDING         N/A     19  13  80 N6        30.33R WCI  10

$$

REGIONAL REPORTS     COLORADO/ARIZONA

CITY           SKY/WX    TMP DP  RH WIND       PRES   REMARKS
CRAIG, CO      CLOUDY    17  10  74 SE3       30.26R
GRAND JUNCTION CLOUDY    22  17  81 CALM      30.31R
RIFLE, CO      CLOUDY    26  19  74 CALM      30.29R
MONTROSE, CO   CLEAR     22  13  68 N3        30.30R
CORTEZ, CO     PTCLDY    13   9  84 E9        30.27R WCI   1
COLORADO CITY    N/A     27  21  80 CALM      30.30R
PAGE, AZ       CLEAR     31  12  45 SW5       30.27S HAZE    WCI  26
GRAND CANYON   CLEAR     16  11  80 CALM      30.24R
KINGMAN, AZ    CLEAR    N/A N/A N/A E9        30.23R
FLAGSTAFF, AZ  CLEAR     13   4  67 CALM      30.22S

$$

REGIONAL REPORTS    NEVADA/IDAHO/WYOMING

CITY           SKY/WX    TMP DP  RH WIND       PRES   REMARKS
LAS VEGAS, NV  PTCLDY    46  27  47 SW3       30.25R
ELY, NY        CLEAR     14  10  84 S16       30.28R WCI  -2
ELKO, NV       CLEAR     26  24  92 NE3       30.29R
POCATELLO, ID  CLOUDY    33  25  72 SW14      30.28R WCI  23
BURLEY, ID     CLEAR     33  27  78 SW12      30.28R WCI  24
EVANSTON, WY   CLOUDY    22  18  85 SW12      30.23R WCI  10
ROCK SPRINGS,  MOCLDY    19  14  81 SW18      30.19R WCI   4

$$




USA.gov is the U.S. government's official web portal to all federal, state and local government web resources and services.